Regional Weather Roundup
Issued by NWS

Home | Current Version | Previous Version | Graphics & Text | Print | Product List | Glossary On
Versions: 1 2 3 4 5 6 7 8 9 10 11 12 13 14 15 16 17 18 19 20 21 22 23 24 25 26 27 28 29 30 31 32 33 34 35 36 37 38 39 40 41 42 43 44 45 46 47 48
000
ASUS45 KBOU 221807
RWRCO

WEATHER ROUNDUP FOR COLORADO
NATIONAL WEATHER SERVICE DENVER/BOULDER CO
1200 PM MDT TUE JUL 22 2014

NOTE: "FAIR" INDICATES FEW OR NO CLOUDS BELOW 12000 FEET WITH NO
SIGNIFICANT WEATHER AND/OR OBSTRUCTIONS TO VISIBILITY.

COZ001>005-013-030-031-221900-
...NORTHWEST COLORADO...

CITY           SKY/WX    TMP DP  RH WIND       PRES   REMARKS
CRAIG          SUNNY     86  36  16 N7        30.38F
HAYDEN         SUNNY     81  34  18 E3        30.41F
MEEKER         SUNNY     87  29  12 VRB6      30.39F
MOUNT WERNER   NOT AVBL
STEAMBOAT SPGS SUNNY     81  34  18 CALM      30.44S
WALDEN         SUNNY     79  28  15 SW9       30.53S
$$

COZ006>008-011-221900-
...WEST CENTRAL VALLEYS...

CITY           SKY/WX    TMP DP  RH WIND       PRES   REMARKS
GRAND JUNCTION SUNNY     88  28  11 S7        30.27F
MONTROSE       SUNNY     87  39  18 VRB5      30.36F
EAGLE          SUNNY     82  32  16 CALM      30.44F
RIFLE          SUNNY     87  33  14 VRB3      30.33F
DELTA          SUNNY     91  32  12 S7        30.30F
NUCLA          NOT AVBL
$$

COZ017>023-064>068-221900-
...SOUTHWEST COLORADO...

CITY           SKY/WX    TMP DP  RH WIND       PRES   REMARKS
DURANGO        SUNNY     87  34  15 VRB3      30.39F
CORTEZ         SUNNY     93  26   9 NE8       30.33F
PAGOSA SPRINGS SUNNY     82  28  14 SW5       30.48F
TELLURIDE      SUNNY     79  27  14 W8        30.60S
WOLF CREEK PAS NOT AVBL
$$

COZ009-010-012-014-032>034-037-058>063-221900-
...CENTRAL COLORADO...

CITY           SKY/WX    TMP DP  RH WIND       PRES   REMARKS
ASPEN          SUNNY     83  27  13 NE6       30.50F
BUENA VISTA    SUNNY     82  23  11 CALM      30.51F
COPPER MTN     SUNNY     68  12  11 SW6G18    30.88S
BERTHOUD PASS  FAIR      57  43  58 W7        30.93S
COTTONWOOD PAS SUNNY     81  14   8 CALM      30.68F
GUNNISON       SUNNY     73  34  23 W5        30.55F
KREMMLING      SUNNY     79  32  18 CALM      30.49F
LEADVILLE      SUNNY     71  21  15 MISG      30.68F
MONARCH PASS   SUNNY     63  30  29 W10G18    30.97S
SALIDA         SUNNY     85  29  13 E6        30.54F
SUNLIGHT       SUNNY     70  36  28 CALM      30.79S
WILKERSON PASS SUNNY     73  27  17 SW6       30.85R
$$

COZ069>075-221900-
...SAN LUIS VALLEY/SANGRE DE CRISTO MOUNTAINS...

CITY           SKY/WX    TMP DP  RH WIND       PRES   REMARKS
ALAMOSA        SUNNY     79  46  31 CALM      30.48F
LA VETA PASS   SUNNY     75  36  23 E16G24    30.70F
SAGUACHE       SUNNY     81  30  16 SW5       30.51F
$$

COZ035-036-038>040-221900-
...NORTHERN COLORADO FRONT RANGE...

CITY           SKY/WX    TMP DP  RH WIND       PRES   REMARKS
DENVER INTL AP MOSUNNY   86  48  26 E7        30.34F
DMNS CITY PARK   N/A     83  50  32 NE7       30.34S
AURORA         MOSUNNY   80  52  37 E7        30.37F
FRONT RANGE AP NOT AVBL
ERIE MUNI ARPT SUNNY     83  49  29 CALM      30.33F
BOULDER MUN AP SUNNY     82  50  32 SE3       30.34F
CENTENNIAL     MOSUNNY   80  49  33 CALM      30.38S
BROOMFIELD     MOSUNNY   82  50  32 NE9       30.37F
FORT COLLINS   SUNNY     84  57  39 NE5       30.33F
LONGMONT       SUNNY     86  55  33 CALM      30.34F
$$

COZ041-046-047-076>085-087-088-221900-
...PIKES PEAK/PALMER DIVIDE AND SOUTHERN FOOTHILLS...

CITY           SKY/WX    TMP DP  RH WIND       PRES   REMARKS
COLO. SPRINGS  MOSUNNY   89  46  22 NE17      30.37R
A. F. ACADEMY  SUNNY     83  47  27 N13       30.40S
ELLICOTT       SUNNY     86  49  27 E17G23    30.37R
FALCON         SUNNY     82  48  30 N14       30.44S
FORT CARSON    NOT AVBL
LIMON          SUNNY     88  50  27 VRB7      30.33S
MONUMENT HILL  SUNNY     77  46  33 N10       30.46S
TRINIDAD       SUNNY     93  42  17 NE10      30.32R
$$

COZ042>045-048>051-090-091-221900-
...NORTHEAST COLORADO...

CITY           SKY/WX    TMP DP  RH WIND       PRES   REMARKS
GREELEY ARPT   SUNNY     84  54  34 SE7       30.31F
AKRON          SUNNY     88  54  31 E13       30.29S
BURLINGTON     SUNNY     91  59  33 E8        30.21F
WRAY             N/A     92  56  30 NE14G21   30.22S
STERLING       SUNNY     91  61  35 NE6       30.24S
HOLYOKE        SUNNY     88  57  35 E5        30.24S
FORT MORGAN    SUNNY     89  50  26 SE10G16   30.29F
$$

COZ086-089-092>099-221900-
...SOUTHEAST COLORADO...

CITY           SKY/WX    TMP DP  RH WIND       PRES   REMARKS
PUEBLO         SUNNY     94  50  22 NE14      30.24R
LA JUNTA       SUNNY     88  62  41 E6        30.21F
LAMAR          SUNNY     91  59  33 MISG      30.16F
SPRINGFIELD      N/A     89  60  37 NE10      30.22S
$$


USA.gov is the U.S. government's official web portal to all federal, state and local government web resources and services.